Flag for Germany Weather past 2 weeks in Freital, Saxony, Germany

Now
53 °F

Low clouds.


Feels Like: 51 °F
Forecast: 46 / 67 °F
Wind: 5 mph from North

Location: Dresden-Klotzsche

Current Time: May 24, 2015 at 6:19:11 AM

Latest Report: May 24, 2015 at 5:00 AM


Visibility: 8 mi

Pressure: 30.10 "Hg

Humidity: 90%

Dew point: 50 °F

Location of FreitalLocation

Historic Weather in Freital — Graph

°F

Freital temperature yesterday

Maximum temperature yesterday: 66 °F (at 3:00 PM)
Minimum temperature yesterday: 46 °F (at 4:00 AM)
Average temperature yesterday: 58 °F

Past Weeks' High & Low Weather Summary

 TemperatureHumidityPressure
High76 °F (May 12, 3:00 PM)97% (May 15, 6:00 AM)30.41 "Hg (May 15, 6:00 AM)
Low37 °F (May 15, 6:00 AM)28% (May 11, 12:00 PM)29.67 "Hg (May 19, 3:00 AM)
Average56 °F62%30.07 "Hg
* Reported May 9 4:00 AM — May 24 4:00 AM, Freital, Weather by CustomWeather, © 2015

Note: Actual official high and low records may vary slightly from our data, if they occured in-between our weather recording intervals... More about our weather records

Advertising

Freital weather history for previous 24 hours

 ConditionsComfort  
Time TempWeatherWind HumidityBarometerVisibility
4:00 AM
Sun, May 24
54 °FOvercast.5 mph89%30.10 "Hg16 mi
3:00 AM55 °FOvercast.2 mph87%30.09 "Hg16 mi
2:00 AM56 °FOvercast.3 mph86%30.09 "Hg19 mi
1:00 AM57 °FOvercast.3 mph79%30.08 "Hg19 mi
12:00 AM58 °FOvercast.5 mph72%30.07 "Hg22 mi
10:00 PM
Sat, May 23
60 °FOvercast.3 mph62%30.06 "Hg22 mi
9:00 PM62 °FOvercast.3 mph58%30.04 "Hg25 mi
8:00 PM63 °FOvercast.3 mph52%30.03 "Hg28 mi
7:00 PM64 °FOvercast.5 mph51%30.03 "Hg28 mi
6:00 PM65 °FOvercast.5 mph45%30.02 "Hg28 mi
4:00 PM66 °FOvercast.3 mph42%30.03 "Hg28 mi
3:00 PM66 °FOvercast.2 mph42%30.04 "Hg28 mi
2:00 PM65 °FOvercast.3 mph42%30.06 "Hg28 mi
1:00 PM64 °FOvercast.5 mph40%30.07 "Hg28 mi
12:00 PM63 °FOvercast.3 mph47%30.09 "Hg25 mi
10:00 AM60 °FOvercast.2 mph56%30.12 "Hg25 mi
9:00 AM54 °FOvercast.1 mph72%30.14 "Hg25 mi
8:00 AM51 °FPartly sunny.2 mph75%30.14 "Hg25 mi
7:00 AM47 °FOvercast.3 mph82%30.14 "Hg25 mi
Weather by CustomWeather, © 2015

See weather overviewHow to use our weather pages